�������l�o���
Date,Time,MP-1(��Sv/h),MP-2(��Sv/h),MP-3(��Sv/h),MP-4(��Sv/h),MP-5(��Sv/h),MP-6(��Sv/h),MP-7(��Sv/h),MP-8(��Sv/h),����,����(m/s),���J
2018/11/06,00:00,0.783,1.183,0.832,1.488,1.073,0.459,0.810,0.766,�k,2.0,��
2018/11/06,00:10,0.783,1.185,0.835,1.487,1.071,0.457,0.809,0.766,�k�k��,2.5,��
2018/11/06,00:20,0.783,1.185,0.833,1.489,1.070,0.458,0.810,0.765,�k,2.6,��
2018/11/06,00:30,0.783,1.186,0.833,1.488,1.072,0.458,0.809,0.766,�k,2.3,��
2018/11/06,00:40,0.782,1.185,0.835,1.487,1.072,0.459,0.810,0.765,�k�k��,3.4,��
2018/11/06,00:50,0.782,1.184,0.833,1.486,1.073,0.458,0.808,0.767,�k,2.6,��
2018/11/06,01:00,0.781,1.183,0.832,1.489,1.072,0.457,0.809,0.763,�k,2.3,��
2018/11/06,01:10,0.782,1.186,0.833,1.487,1.072,0.458,0.810,0.766,�k�k��,2.5,��
2018/11/06,01:20,0.783,1.184,0.833,1.491,1.072,0.459,0.810,0.764,�k�k��,3.2,��
2018/11/06,01:30,0.783,1.181,0.833,1.487,1.073,0.458,0.808,0.765,�k�k��,3.2,��
2018/11/06,01:40,0.783,1.183,0.835,1.487,1.071,0.459,0.810,0.765,�k�k��,3.2,��
2018/11/06,01:50,0.783,1.185,0.834,1.487,1.072,0.459,0.809,0.765,�k�k��,3.2,��
2018/11/06,02:00,0.783,1.183,0.834,1.488,1.072,0.459,0.810,0.766,�k�k��,3.1,��
2018/11/06,02:10,0.785,1.182,0.833,1.488,1.071,0.459,0.808,0.765,�k�k��,2.9,��
2018/11/06,02:20,0.782,1.186,0.834,1.490,1.071,0.457,0.809,0.766,�k�k��,2.9,��
2018/11/06,02:30,0.781,1.185,0.833,1.489,1.073,0.458,0.809,0.765,�k�k��,2.8,��
2018/11/06,02:40,0.784,1.181,0.834,1.488,1.074,0.458,0.809,0.768,�k�k��,1.5,��
2018/11/06,02:50,0.783,1.186,0.834,1.490,1.074,0.457,0.808,0.766,�k�k��,2.9,��
2018/11/06,03:00,0.783,1.185,0.833,1.491,1.072,0.459,0.807,0.766,�k�k��,2.6,��
2018/11/06,03:10,0.781,1.183,0.833,1.488,1.073,0.459,0.810,0.766,�k�k��,2.3,��
2018/11/06,03:20,0.783,1.185,0.834,1.489,1.075,0.458,0.808,0.767,�k�k��,1.5,��
2018/11/06,03:30,0.782,1.181,0.833,1.486,1.074,0.458,0.810,0.766,�k�k��,2.9,��
2018/11/06,03:40,0.783,1.184,0.832,1.490,1.074,0.457,0.807,0.767,�k�k��,3.4,��
2018/11/06,03:50,0.782,1.182,0.834,1.488,1.073,0.458,0.809,0.765,�k,4.1,��
2018/11/06,04:00,0.782,1.185,0.832,1.489,1.070,0.458,0.810,0.765,�k,3.6,��
2018/11/06,04:10,0.782,1.185,0.835,1.488,1.073,0.458,0.810,0.766,�k�k��,3.8,��
2018/11/06,04:20,0.782,1.185,0.835,1.490,1.072,0.459,0.809,0.765,�k�k��,3.6,��
2018/11/06,04:30,0.781,1.184,0.834,1.489,1.074,0.458,0.808,0.766,�k�k��,3.7,��
2018/11/06,04:40,0.784,1.184,0.832,1.488,1.071,0.458,0.808,0.767,�k�k��,3.5,��
2018/11/06,04:50,0.784,1.186,0.834,1.488,1.072,0.458,0.809,0.768,�k�k��,3.4,��
2018/11/06,05:00,0.781,1.185,0.833,1.489,1.071,0.457,0.808,0.765,�k�k��,3.7,��
2018/11/06,05:10,0.782,1.184,0.833,1.487,1.075,0.458,0.808,0.765,�k�k��,3.4,��
2018/11/06,05:20,0.783,1.186,0.832,1.491,1.071,0.458,0.808,0.764,�k��,3.1,��
2018/11/06,05:30,0.782,1.182,0.834,1.488,1.072,0.457,0.807,0.767,�k��,2.8,��
2018/11/06,05:40,0.783,1.183,0.832,1.487,1.073,0.456,0.807,0.766,�k�k��,2.9,��
2018/11/06,05:50,0.783,1.183,0.832,1.490,1.073,0.458,0.807,0.765,�k�k��,2.9,��
2018/11/06,06:00,0.783,1.185,0.834,1.484,1.073,0.458,0.809,0.766,�k�k��,3.0,��
2018/11/06,06:10,0.782,1.185,0.834,1.488,1.072,0.458,0.808,0.765,�k�k��,2.9,��
2018/11/06,06:20,0.784,1.185,0.832,1.490,1.074,0.458,0.809,0.764,�k�k��,3.3,��
2018/11/06,06:30,0.782,1.184,0.834,1.488,1.073,0.457,0.808,0.766,�k�k��,2.9,��
2018/11/06,06:40,0.782,1.184,0.833,1.489,1.072,0.458,0.809,0.764,�k�k��,2.6,��
2018/11/06,06:50,0.783,1.183,0.832,1.488,1.072,0.457,0.806,0.766,�k�k��,3.2,��
2018/11/06,07:00,0.781,1.184,0.835,1.487,1.073,0.457,0.807,0.766,�k�k��,3.2,��
2018/11/06,07:10,0.784,1.183,0.832,1.489,1.073,0.457,0.810,0.768,�k�k��,2.9,��
2018/11/06,07:20,0.783,1.185,0.833,1.489,1.073,0.457,0.809,0.767,�k�k��,3.2,��
2018/11/06,07:30,0.784,1.183,0.832,1.488,1.075,0.457,0.807,0.766,�k�k��,2.6,��
2018/11/06,07:40,0.784,1.186,0.834,1.485,1.070,0.458,0.807,0.766,�k�k��,3.1,��
2018/11/06,07:50,0.783,1.183,0.834,1.487,1.073,0.458,0.808,0.764,�k�k��,3.0,��
2018/11/06,08:00,0.784,1.185,0.835,1.489,1.073,0.456,0.808,0.765,�k�k��,2.5,��
2018/11/06,08:10,0.784,1.184,0.835,1.488,1.073,0.458,0.808,0.764,�k�k��,2.6,��
2018/11/06,08:20,0.786,1.183,0.834,1.488,1.075,0.458,0.809,0.764,�k,2.5,��
2018/11/06,08:30,0.785,1.186,0.833,1.489,1.074,0.457,0.808,0.765,�k�k��,2.2,��
2018/11/06,08:40,0.784,1.184,0.832,1.486,1.076,0.457,0.807,0.763,�k�k��,1.9,��
2018/11/06,08:50,0.785,1.183,0.835,1.488,1.072,0.457,0.807,0.765,�k�k��,2.3,��
2018/11/06,09:00,0.786,1.184,0.835,1.489,1.072,0.458,0.808,0.765,�k�k��,2.9,��
2018/11/06,09:10,0.783,1.184,0.834,1.492,1.073,0.459,0.808,0.765,�k,3.4,��
2018/11/06,09:20,0.785,1.184,0.835,1.492,1.073,0.459,0.811,0.767,�k�k��,3.5,��
2018/11/06,09:30,0.782,1.183,0.834,1.488,1.072,0.458,0.807,0.765,�k�k��,3.6,��
2018/11/06,09:40,0.783,1.181,0.833,1.491,1.073,0.456,0.808,0.764,�k,3.1,��
2018/11/06,09:50,0.784,1.178,0.834,1.489,1.073,0.454,0.808,0.764,�k,3.1,��
2018/11/06,10:00,0.783,1.182,0.835,1.490,1.074,0.456,0.807,0.764,�k,3.4,��
2018/11/06,10:10,0.782,1.179,0.835,1.492,1.072,0.456,0.808,0.763,�k,3.7,��
2018/11/06,10:20,0.783,1.180,0.834,1.488,1.073,0.456,0.808,0.764,�k,3.4,��
2018/11/06,10:30,0.781,1.180,0.833,1.489,1.073,0.456,0.808,0.765,�k,4.1,�L
2018/11/06,10:40,0.782,1.181,0.834,-,1.074,0.457,0.811,0.762,�k,3.9,�L
2018/11/06,10:50,0.783,1.181,0.832,-,1.074,0.456,0.808,0.764,�k,4.2,�L
2018/11/06,11:00,0.783,1.180,0.833,-,1.075,0.455,0.808,0.763,�k,3.9,��
2018/11/06,11:10,0.784,1.181,0.833,-,1.071,0.454,0.809,0.761,�k,4.2,�L
2018/11/06,11:20,0.782,1.181,0.833,-,1.072,0.455,0.809,0.764,�k,4.3,�L
2018/11/06,11:30,0.781,1.177,0.834,-,1.074,0.455,0.808,0.763,�k,4.1,�L
2018/11/06,11:40,0.784,1.180,0.833,-,1.073,0.457,0.810,0.762,�k,4.7,��
2018/11/06,11:50,0.782,1.184,0.835,-,1.073,0.458,0.809,0.763,�k,4.3,��
2018/11/06,12:00,0.783,1.180,0.835,-,1.075,0.457,0.808,0.763,�k,4.3,�L
2018/11/06,12:10,0.783,1.183,0.834,-,1.075,0.457,0.809,0.762,�k,3.3,�L
2018/11/06,12:20,0.782,1.181,0.833,-,1.074,0.458,0.807,0.763,�k,3.8,�L
2018/11/06,12:30,0.778,1.164,0.827,-,1.066,0.456,0.808,0.764,�k�k��,7.3,�L
2018/11/06,12:40,0.774,1.158,0.825,-,1.060,0.455,0.807,0.762,�k,5.1,�L
2018/11/06,12:50,0.775,1.154,0.825,-,1.057,0.455,0.807,0.763,�k�k��,3.9,�L
2018/11/06,13:00,0.774,1.154,0.825,-,1.055,0.454,0.805,0.761,�k�k��,3.7,�L
2018/11/06,13:10,0.775,1.152,0.823,-,1.054,0.455,0.805,0.761,�k�k��,4.2,�L
2018/11/06,13:20,0.774,1.151,0.824,-,1.058,0.456,0.807,0.760,�k,4.4,�L
2018/11/06,13:30,0.774,1.152,0.826,-,1.055,0.457,0.806,0.762,�k,3.5,�L
2018/11/06,13:40,0.775,1.154,0.826,-,1.055,0.455,0.806,0.761,�k�k��,4.0,�L
2018/11/06,13:50,0.775,1.151,0.823,-,1.053,0.456,0.805,0.762,�k,3.6,�L
2018/11/06,14:00,0.775,1.150,0.822,-,1.052,0.456,0.803,0.759,�k�k��,4.6,�L
2018/11/06,14:10,0.771,1.151,0.821,-,1.048,0.453,0.801,0.757,�k,4.4,�L
2018/11/06,14:20,0.772,1.142,0.818,-,1.046,0.454,0.799,0.756,�k�k��,4.6,�L
2018/11/06,14:30,0.769,1.142,0.817,-,1.043,0.453,0.800,0.755,�k�k��,5.5,�L
2018/11/06,14:40,0.765,1.136,0.817,-,1.043,0.452,0.799,0.753,�k�k��,4.6,�L
2018/11/06,14:50,0.763,1.133,0.815,-,1.037,0.450,0.796,0.753,�k�k��,6.3,�L
2018/11/06,15:00,0.762,1.132,0.812,-,1.038,0.451,0.797,0.752,�k�k��,4.6,�L
2018/11/06,15:10,0.763,1.135,0.812,-,1.035,0.451,0.796,0.753,�k�k��,4.1,�L
2018/11/06,15:20,0.764,1.135,0.813,1.454,1.036,0.451,0.798,0.750,�k�k��,5.3,�L
2018/11/06,15:30,0.762,1.137,0.814,1.443,1.035,0.452,0.795,0.753,�k�k��,5.3,�L
2018/11/06,15:40,0.764,1.137,0.811,1.442,1.035,0.452,0.795,0.752,�k�k��,5.1,�L
2018/11/06,15:50,0.763,1.134,0.811,1.440,1.034,0.451,0.792,0.751,�k�k��,4.2,�L
2018/11/06,16:00,0.762,1.135,0.810,1.442,1.034,0.450,0.794,0.752,�k,5.1,�L
2018/11/06,16:10,0.760,1.134,0.808,1.436,1.030,0.449,0.793,0.750,�k�k��,5.1,�L
2018/11/06,16:20,0.761,1.133,0.809,1.438,1.032,0.449,0.793,0.750,�k�k��,3.9,�L
2018/11/06,16:30,0.759,1.134,0.808,1.436,1.031,0.449,0.793,0.750,�k�k��,3.7,�L
2018/11/06,16:40,0.762,1.135,0.807,1.435,1.031,0.450,0.794,0.750,�k�k��,3.1,�L
2018/11/06,16:50,0.759,1.134,0.807,1.435,1.031,0.450,0.792,0.751,�k��,3.4,�L
2018/11/06,17:00,0.759,1.131,0.805,1.432,1.030,0.449,0.792,0.748,�k�k��,4.4,�L
2018/11/06,17:10,0.757,1.128,0.806,1.428,1.028,0.448,0.793,0.748,�k��,4.0,�L
2018/11/06,17:20,0.755,1.129,0.806,1.428,1.027,0.449,0.791,0.748,�k��,4.6,�L
2018/11/06,17:30,0.757,1.127,0.807,1.427,1.027,0.448,0.789,0.748,�k��,5.7,�L
2018/11/06,17:40,0.755,1.127,0.804,1.424,1.026,0.448,0.789,0.749,�k��,5.0,�L
2018/11/06,17:50,0.754,1.128,0.804,1.424,1.022,0.448,0.790,0.746,�k,3.6,�L
2018/11/06,18:00,0.754,1.123,0.802,1.426,1.022,0.447,0.789,0.745,�k�k��,3.7,�L
2018/11/06,18:10,0.753,1.124,0.803,1.421,1.023,0.449,0.788,0.745,�k�k��,4.2,�L
2018/11/06,18:20,0.756,1.128,0.802,1.423,1.023,0.449,0.789,0.747,�k�k��,4.4,�L
2018/11/06,18:30,0.755,1.126,0.805,1.422,1.024,0.449,0.788,0.747,�k�k��,5.6,�L
2018/11/06,18:40,0.757,1.130,0.802,1.423,1.028,0.448,0.790,0.747,�k�k��,6.3,�L
2018/11/06,18:50,0.755,1.129,0.803,1.425,1.025,0.451,0.792,0.749,�k�k��,6.3,�L
2018/11/06,19:00,0.756,1.131,0.803,1.423,1.023,0.449,0.791,0.748,�k�k��,6.8,�L
2018/11/06,19:10,0.756,1.127,0.801,1.421,1.018,0.449,0.788,0.748,�k�k��,5.8,�L
2018/11/06,19:20,0.756,1.129,0.803,1.420,1.021,0.449,0.789,0.747,�k�k��,6.1,�L
2018/11/06,19:30,0.756,1.132,0.803,1.421,1.023,0.448,0.788,0.749,�k�k��,6.5,�L
2018/11/06,19:40,0.757,1.131,0.802,1.421,1.021,0.448,0.790,0.747,�k�k��,6.2,�L
2018/11/06,19:50,0.757,1.129,0.803,1.421,1.023,0.449,0.788,0.748,�k�k��,7.1,�L
2018/11/06,20:00,0.756,1.129,0.805,1.421,1.024,0.451,0.788,0.747,�k�k��,6.7,�L
2018/11/06,20:10,0.757,1.130,0.804,1.422,1.021,0.450,0.789,0.747,�k�k��,5.6,�L
2018/11/06,20:20,0.755,1.130,0.803,1.421,1.022,0.450,0.788,0.746,�k�k��,6.0,�L
2018/11/06,20:30,0.756,1.129,0.803,1.420,1.022,0.449,0.788,0.745,�k�k��,6.3,�L
2018/11/06,20:40,0.757,1.131,0.803,1.419,1.023,0.449,0.787,0.745,�k�k��,5.6,�L
2018/11/06,20:50,0.756,1.132,0.804,1.420,1.023,0.449,0.789,0.747,�k�k��,5.2,�L
2018/11/06,21:00,0.759,1.131,0.802,1.421,1.026,0.448,0.789,0.748,�k�k��,5.6,�L
2018/11/06,21:10,0.757,1.132,0.802,1.419,1.025,0.451,0.788,0.749,�k�k��,6.1,�L
2018/11/06,21:20,0.759,1.130,0.803,1.422,1.028,0.451,0.787,0.749,�k�k��,6.4,�L
2018/11/06,21:30,0.757,1.132,0.802,1.423,1.027,0.449,0.789,0.748,�k�k��,6.7,��
2018/11/06,21:40,0.758,1.134,0.802,1.424,1.028,0.449,0.789,0.749,�k�k��,6.5,��
2018/11/06,21:50,0.757,1.133,0.802,1.421,1.029,0.448,0.789,0.749,�k�k��,5.5,��
2018/11/06,22:00,0.757,1.131,0.802,1.425,1.028,0.450,0.790,0.749,�k�k��,5.2,��
2018/11/06,22:10,0.757,1.133,0.804,1.426,1.028,0.449,0.790,0.749,�k,5.7,�L
2018/11/06,22:20,0.758,1.132,0.804,1.424,1.027,0.448,0.789,0.750,�k,5.0,��
2018/11/06,22:30,0.756,1.135,0.803,1.425,1.027,0.450,0.788,0.749,�k�k��,6.0,��
2018/11/06,22:40,0.757,1.132,0.802,1.423,1.031,0.448,0.792,0.751,�k�k��,6.2,��
2018/11/06,22:50,0.761,1.134,0.804,1.425,1.028,0.449,0.789,0.749,�k,6.4,��
2018/11/06,23:00,0.759,1.134,0.803,1.422,1.029,0.450,0.791,0.749,�k,7.5,��
2018/11/06,23:10,0.759,1.135,0.803,1.427,1.031,0.451,0.791,0.750,�k�k��,7.5,��
2018/11/06,23:20,0.758,1.137,0.802,1.425,1.031,0.449,0.791,0.750,�k,7.3,��
2018/11/06,23:30,0.757,1.135,0.803,1.426,1.027,0.448,0.792,0.750,�k,6.6,��
2018/11/06,23:40,0.757,1.136,0.803,1.427,1.030,0.450,0.791,0.750,�k,5.8,��
2018/11/06,23:50,0.758,1.137,0.805,1.426,1.027,0.449,0.790,0.750,�k,6.0,��
